This demonstration page uses our WeatherBlox Daily Observations layout. Learn more.

Left ArrowRight Arrow

41.86663, -103.66717

Hourly Observations for October 6, 2018

Temp ( °F °C ) Dew Point ( °F °C ) Humidity (%) Winds ( mph kmh ) Pressure ( in mb ) Visibility ( mi km ) Precip ( " mm )
12:53 am 00:53 Clear 32 0 32 0 100 100 NNW 9 15 30.14 1021 10 16 0.00 0.00
1:53 am 01:53 Clear 32 0 32 0 100 100 NNW 7 11 30.15 1021 10 16 0.00 0.00
2:53 am 02:53 Clear 30 -1.1 28 -2.2 92 92 Calm 30.16 1021 10 16 0.00 0.00
3:53 am 03:53 Clear 27 -2.8 26 -3.3 96 96 ENE 3 6 30.17 1022 10 16 0.00 0.00
4:53 am 04:53 Clear 26 -3.3 26 -3.3 100 100 N 3 6 30.18 1022 10 16 0.00 0.00
5:53 am 05:53 Clear 26 -3.3 26 -3.3 100 100 Calm 30.17 1022 10 16 0.00 0.00
6:53 am 06:53 Clear 24 -4.4 24 -4.4 100 100 N 5 7 30.18 1022 10 16 0.00 0.00
7:53 am 07:53 Sunny 29 -1.7 29 -1.7 100 100 ESE 3 6 30.17 1022 10 16 0.00 0.00
8:04 am 08:04 Mostly Sunny 30 -1.1 30 -1.1 100 100 SE 3 6 30.27 1025 9 14 0.00 0.00
8:22 am 08:22 Partly Cloudy with Mist and Fog 30 -1 30 -1 100 100 E 3 6 30.27 1025 3 4 0.00 0.00
8:30 am 08:30 Mostly Sunny 33 0.6 32 0 96 96 Calm 30.24 1024 10 16 0.00 0.00
8:53 am 08:53 Sunny 34 1.1 34 1.1 100 100 S 8 13 30.17 1022 10 16 0.00 0.00
9:53 am 09:53 Cloudy 39 3.9 36 2.2 89 89 ESE 6 9 30.16 1022 10 16 0.00 0.00
10:53 am 10:53 Cloudy 43 6.1 37 2.8 80 80 ESE 8 13 30.15 1021 10 16 0.00 0.00
11:53 am 11:53 Cloudy 49 9.4 38 3.3 66 66 ESE 9 15 30.11 1020 10 16 0.00 0.00
12:53 pm 12:53 Cloudy 50 10 39 3.9 66 66 ESE 17 28 30.08 1019 10 16 0.00 0.00
1:53 pm 13:53 Mostly Cloudy 54 12.2 37 2.8 53 53 SSE 21 33 30.04 1017 10 16 0.00 0.00
2:53 pm 14:53 Mostly Cloudy 56 13.3 37 2.8 49 49 SSE 16 26 30.01 1016 10 16 0.00 0.00
3:53 pm 15:53 Partly Cloudy 56 13.3 38 3.3 51 51 SE 18 30 30.00 1016 10 16 0.00 0.00
4:53 pm 16:53 Sunny 56 13.3 35 1.7 46 46 SE 16 26 29.98 1015 10 16 0.00 0.00
5:53 pm 17:53 Sunny 54 12.2 36 2.2 51 51 ESE 15 24 29.98 1015 10 16 0.00 0.00
6:53 pm 18:53 Clear 51 10.6 36 2.2 56 56 ESE 12 19 30.02 1017 10 16 0.00 0.00
7:53 pm 19:53 Clear 49 9.4 35 1.7 59 59 ESE 13 20 30.02 1017 10 16 0.00 0.00
8:53 pm 20:53 Mostly Cloudy 49 9.4 34 1.1 56 56 ESE 15 24 30.03 1017 10 16 0.00 0.00
9:53 pm 21:53 Clear 48 8.9 34 1.1 58 58 ESE 16 26 30.02 1017 10 16 0.00 0.00
10:53 pm 22:53 Cloudy 47 8.3 34 1.1 61 61 ESE 16 26 30.03 1017 10 16 0.00 0.00
11:53 pm 23:53 Mostly Cloudy 45 7.2 34 1.1 66 66 ESE 14 22 30.01 1016 10 16 0.00 0.00

Powered by AerisWeather